Погода в Буйновичах

Беларусь     51°51′48″N   28°32′49″E
темп.,
°C
ветер,
м/с
пор.,
м/с
влажн.,
%
обл.,
%
осадки,
мм/ч
давл.,
гПа
погр.,
м
18 мая, вт
вт1800:00+13св119294 0.4 100213
03:00+13юв119397 0.4 100221
06:00+13ююз259892 0.6 1001168
09:00+16ю228382 0.6 1002350
12:00+17ююв3475100 1.0 1001762
15:00+19вюв4572100 3.4 1000954
18:00+17юв3582100 3.6 999264
21:00+14ссв128960 5.8 99911
19 мая, ср
ср1900:00+13ссз229499 1.0 99931
03:00+12ссз4798100 1.1 999279
06:00+11сз5897100 0.0 1000490
09:00+10сз4997100 0.9 1002518
12:00+10зсз5997100 5.8 1004549
15:00+10сз61096100 11.0 1005685
18:00+10сз51394100 5.2 1007718
21:00+10сз4119552 5.7 1008478
20 мая, чт
чт2000:00+8зсз41196100 0.0 1008348
03:00+8зсз41096100 0.0 1008248
06:00+9зсз3993100 0.0 1009293
09:00+12зсз4684100 0.0 1009475
12:00+16ссз5762100 0.1 10091515
15:00+17ссз4657100 0.3 10101576
18:00+15ссз367065 0.0 1011331
21:00+12ссз3480100 0.0 101356
21 мая, пт
пт2100:00+9с2288100 0.0 101421
03:00+9с2289100 0.0 101517
06:00+9с2288100 0.0 101630
09:00+13с3473100 0.0 1017379
12:00+17ссв346177 1.0 10161197
15:00+18ссв3454100 1.8 10161538
18:00+18ссв445811 0.1 10161370
21:00+12св33775 0.4 101724
22 мая, сб
сб2200:00+10в22870 0.0 101710
03:00+9в22900 0.0 101716
06:00+9вюв229190 0.0 101737
09:00+15вюв227187 0.0 1017393
12:00+19вюв235545 0.0 10151230
15:00+20в2347100 0.0 10141619
18:00+20в355786 0.0 10131404
21:00+14вюв488313 0.1 1012149